Date_and_time,latitude,longitude,wind_speed,RelWindDirFrom,WindDirFrom,air_pressure,air_temperature,relative_humidity,Temp,platform_speed_wrt_ground,air_pressure_at_mean_sea_level,platform_orientation
2019-07-17 15:20,50.6304416666667,-96.980765,11.7,13.7,123,982.00,22.8,68,23.28,0.0,1007.57,125.3
2019-07-17 15:30,50.6304433333333,-96.9807633333333,11.9,14.2,122,981.74,22.7,68,23.29,0.0,1007.30,125.3
2019-07-17 15:40,50.630445,-96.98076,11.0,13.5,122,981.57,22.8,69,23.30,0.0,1007.14,125.3
2019-07-17 15:50,50.6304466666667,-96.98076,11.2,14.1,123,981.49,22.7,69,23.30,0.0,1007.06,125.3
2019-07-17 16:00,50.6304466666667,-96.98076,11.0,13.1,122,981.43,22.7,70,23.31,0.0,1007.01,12.6
2019-07-17 16:10,50.630445,-96.9807533333333,11.4,13.1,117,981.35,22.6,71,23.32,0.0,1006.91,12.6
2019-07-17 16:20,50.63042,-96.9807583333333,10.9,12.4,116,981.22,22.6,71,23.32,0.0,1006.77,12.6
2019-07-17 16:30,50.6304333333333,-96.98076,9.8,11.6,113,981.16,22.7,71,23.33,0.0,1006.70,12.6
2019-07-17 16:40,50.6304366666667,-96.98076,9.6,12.0,112,981.03,22.8,70,23.33,0.0,1006.56,12.6
2019-07-17 16:50,50.6304366666667,-96.980755,9.2,10.8,113,980.86,23.0,69,23.34,0.0,1006.38,12.6
2019-07-17 17:00,50.6304383333333,-96.9807583333333,9.0,10.9,115,980.75,23.1,69,23.35,0.0,1006.25,142.0
2019-07-17 17:10,50.6304383333333,-96.98076,10.1,11.7,110,980.64,23.3,68,23.36,0.0,1006.12,142.0
2019-07-17 17:20,50.6304333333333,-96.98076,11.0,13.0,111,980.48,23.3,67,23.35,0.0,1005.97,142.0
2019-07-17 17:30,50.6304383333333,-96.9807666666667,9.5,11.7,113,980.42,23.4,69,23.35,0.0,1005.90,142.0
2019-07-17 17:40,50.6304616666667,-96.98077,9.2,11.5,111,980.32,23.5,70,23.36,0.0,1005.79,142.0
2019-07-17 17:50,50.6304383333333,-96.9807566666667,10.5,13.1,111,980.19,23.5,70,23.38,0.0,1005.65,142.0
2019-07-17 18:00,50.6304416666667,-96.9807866666667,11.2,13.2,108,980.05,23.5,70,23.40,0.0,1005.52,270.0
2019-07-17 18:10,50.6304583333333,-96.9807733333333,12.1,14.3,116,979.98,23.5,72,23.40,0.0,1005.45,270.0
2019-07-17 18:20,50.6304383333333,-96.98076,12.4,14.7,123,979.88,23.5,71,23.40,0.0,1005.33,270.0
2019-07-17 18:30,50.6304383333333,-96.9807633333333,8.6,11.2,131,979.79,23.3,72,23.41,0.0,1005.25,270.0
2019-07-17 18:40,50.6304633333333,-96.98078,9.5,12.3,143,979.71,23.0,71,23.41,0.0,1005.17,270.0
2019-07-17 18:50,50.6304383333333,-96.980765,10.9,15.2,192,979.79,22.2,76,23.41,0.0,1005.28,270.0
2019-07-17 19:00,50.6304533333333,-96.98076,8.7,14.2,192,979.88,20.6,87,23.41,0.0,1005.44,38.0
2019-07-17 19:10,50.6304533333333,-96.980775,5.8,8.5,185,979.69,20.5,89,23.39,0.0,1005.25,38.0
2019-07-17 19:20,50.6304516666667,-96.980775,4.8,6.8,210,979.54,20.5,91,23.37,0.0,1005.10,38.0
2019-07-17 19:30,50.6304533333333,-96.980775,4.7,5.8,204,979.52,20.6,92,23.36,0.0,1005.06,38.0
2019-07-17 19:40,50.6304533333333,-96.980775,4.1,6.0,204,979.42,20.6,93,23.38,0.0,1004.96,38.0
2019-07-17 19:50,50.6304533333333,-96.980775,5.3,8.9,203,979.43,20.5,96,23.41,0.0,1004.98,38.0
2019-07-17 20:00,50.6304533333333,-96.980775,6.5,9.1,223,979.34,20.3,98,23.42,0.0,1004.90,311.7
2019-07-17 20:10,50.630455,-96.980775,6.1,8.8,238,979.11,20.2,99,23.43,0.0,1004.66,311.7
2019-07-17 20:20,50.630455,-96.980775,6.5,9.1,245,978.94,20.2,100,23.43,0.0,1004.49,311.7
2019-07-17 20:30,50.6304733333333,-96.9807966666667,5.4,7.8,251,978.77,20.2,100,23.44,0.0,1004.33,311.7
2019-07-17 20:40,50.6304566666667,-96.9807633333333,3.0,5.4,251,978.65,20.2,100,23.47,0.0,1004.25,311.7
2019-07-17 20:50,50.6304433333333,-96.980755,1.3,3.4,299,978.49,20.3,100,23.49,0.0,1004.15,311.7
2019-07-17 21:00,50.63045,-96.980755,2.2,3.8,55,978.33,20.8,100,23.51,0.0,1003.97,61.7
2019-07-17 21:10,50.6304533333333,-96.9807633333333,0.9,2.9,56,978.40,20.9,100,23.50,0.0,1004.03,61.7
2019-07-17 21:20,50.6304533333333,-96.9807666666667,1.6,3.4,358,978.26,20.7,100,23.50,0.0,1003.89,61.7
2019-07-17 21:30,50.6304516666667,-96.98077,3.9,6.3,328,978.09,20.4,100,23.48,0.0,1003.73,61.7
2019-07-17 21:40,50.630455,-96.9807666666667,3.8,5.4,315,978.09,20.1,100,23.52,0.0,1003.75,61.7
2019-07-17 21:50,50.6304366666667,-96.9808,3.1,4.5,301,978.12,20.0,100,23.55,0.0,1003.79,61.7
2019-07-17 22:00,50.63045,-96.9807733333333,2.6,4.5,325,977.99,20.1,100,23.51,0.0,1003.65,270.0
2019-07-17 22:10,50.6304516666667,-96.9807583333333,1.9,5.1,31,977.83,20.3,100,23.45,0.0,1003.49,270.0
2019-07-17 22:20,50.630455,-96.9807616666667,2.5,4.1,46,977.76,20.4,100,23.45,0.0,1003.41,270.0
2019-07-17 22:30,50.630445,-96.9807633333333,1.8,3.2,62,977.74,20.7,99,23.51,0.0,1003.38,270.0
2019-07-17 22:40,50.63045,-96.98077,1.1,2.0,28,977.58,21.5,93,23.55,0.0,1003.18,270.0
2019-07-17 22:50,50.63045,-96.9807683333333,1.2,2.4,41,977.45,22.0,91,23.31,0.0,1003.00,270.0
2019-07-17 23:00,50.6304533333333,-96.9807716666667,2.2,3.7,65,977.45,21.8,94,23.29,0.0,1003.00,0.0
2019-07-17 23:10,50.6304266666667,-96.9807716666667,2.1,3.2,89,977.41,22.4,89,23.39,0.0,1002.93,0.0
2019-07-17 23:20,50.6304516666667,-96.9807766666667,2.7,4.1,105,977.37,22.7,87,23.36,0.0,1002.90,0.0
2019-07-17 23:30,50.6304516666667,-96.9807733333333,2.0,3.1,127,977.24,23.0,83,23.38,0.0,1002.76,0.0
